Time,TemperatureF,DewpointF,PressureIn,WindDirection,WindDirectionDegrees,WindSpeedMPH,WindSpeedGustMPH,Humidity,HourlyPrecipIn,Conditions,Clouds,dailyrainin,SolarRadiationWatts/m^2,SoftwareType,DateUTC
2013-09-15 00:02:00,46.0,43.0,-100.00,SW,229,2.0,4.0,88,0.00,,,0.44,0.000000,,2013-09-15 06:02:00,
2013-09-15 00:12:00,46.0,43.0,-100.00,SW,229,2.0,4.0,88,0.00,,,0.44,0.000000,,2013-09-15 06:12:00,
2013-09-15 00:21:00,46.0,43.0,-100.00,SW,229,2.0,4.0,88,0.00,,,0.44,0.000000,,2013-09-15 06:21:00,
2013-09-15 00:22:00,45.0,44.0,-100.00,SE,133,1.0,4.0,96,0.00,,,0.41,0.000000,,2013-09-15 06:22:00,
2013-09-15 00:52:00,45.0,44.0,-100.00,SE,133,1.0,4.0,96,0.00,,,0.41,0.000000,,2013-09-15 06:52:00,
2013-09-15 01:02:00,45.0,44.0,-100.00,SE,133,1.0,4.0,96,0.00,,,0.41,0.000000,,2013-09-15 07:02:00,
2013-09-15 01:11:00,45.0,44.0,-100.00,SE,133,1.0,4.0,96,0.00,,,0.41,0.000000,,2013-09-15 07:11:00,
2013-09-15 01:22:00,45.0,44.0,-100.00,SSE,150,2.0,3.0,96,0.00,,,0.41,0.000000,,2013-09-15 07:22:00,
2013-09-15 01:52:00,45.0,44.0,-100.00,SSE,150,2.0,3.0,96,0.00,,,0.41,0.000000,,2013-09-15 07:52:00,
2013-09-15 02:02:00,45.0,44.0,-100.00,SSE,150,2.0,3.0,96,0.00,,,0.41,0.000000,,2013-09-15 08:02:00,
2013-09-15 02:11:00,45.0,44.0,-100.00,SSE,150,2.0,3.0,96,0.00,,,0.41,0.000000,,2013-09-15 08:11:00,
2013-09-15 02:52:00,44.0,43.0,-100.00,ESE,105,2.0,5.0,95,0.00,,,0.41,0.000000,,2013-09-15 08:52:00,
2013-09-15 03:02:00,44.0,43.0,-100.00,ESE,105,2.0,5.0,95,0.00,,,0.41,0.000000,,2013-09-15 09:02:00,
2013-09-15 03:12:00,44.0,43.0,-100.00,ESE,105,2.0,5.0,95,0.00,,,0.41,0.000000,,2013-09-15 09:12:00,
2013-09-15 03:21:00,44.0,43.0,-100.00,ESE,105,2.0,5.0,95,0.00,,,0.41,0.000000,,2013-09-15 09:21:00,
2013-09-15 03:22:00,44.0,43.0,-100.00,East,99,2.0,6.0,98,0.00,,,0.41,0.000000,,2013-09-15 09:22:00,
2013-09-15 03:53:00,44.0,43.0,-100.00,East,99,2.0,6.0,98,0.00,,,0.41,0.000000,,2013-09-15 09:53:00,
2013-09-15 04:03:00,44.0,43.0,-100.00,East,99,2.0,6.0,98,0.00,,,0.41,0.000000,,2013-09-15 10:03:00,
2013-09-15 04:13:00,44.0,43.0,-100.00,East,99,2.0,6.0,98,0.00,,,0.41,0.000000,,2013-09-15 10:13:00,
2013-09-15 04:22:00,44.0,43.0,-100.00,ESE,103,2.0,5.0,95,0.00,,,0.41,0.000000,,2013-09-15 10:22:00,
2013-09-15 04:53:00,44.0,43.0,-100.00,ESE,103,2.0,5.0,95,0.00,,,0.41,0.000000,,2013-09-15 10:53:00,
2013-09-15 05:02:00,44.0,43.0,-100.00,ESE,103,2.0,5.0,95,0.00,,,0.41,0.000000,,2013-09-15 11:02:00,
2013-09-15 05:12:00,44.0,43.0,-100.00,ESE,103,2.0,5.0,95,0.00,,,0.41,0.000000,,2013-09-15 11:12:00,
2013-09-15 05:52:00,45.0,43.0,-100.00,NE,42,1.0,3.0,91,0.00,,,-99.99,0.000000,,2013-09-15 11:52:00,
2013-09-15 06:02:00,45.0,43.0,-100.00,NE,42,1.0,3.0,91,0.00,,,-99.99,0.000000,,2013-09-15 12:02:00,
2013-09-15 06:12:00,45.0,43.0,-100.00,NE,42,1.0,3.0,91,0.00,,,-99.99,0.000000,,2013-09-15 12:12:00,
2013-09-15 06:21:00,45.0,43.0,-100.00,NE,42,1.0,3.0,91,0.00,,,-99.99,0.000000,,2013-09-15 12:21:00,
2013-09-15 06:52:00,46.0,43.0,-100.00,SE,138,2.0,4.0,89,0.00,,,0.41,0.000000,,2013-09-15 12:52:00,
2013-09-15 07:02:00,46.0,43.0,-100.00,SE,138,2.0,4.0,89,0.00,,,0.41,0.000000,,2013-09-15 13:02:00,
2013-09-15 07:11:00,46.0,43.0,-100.00,SE,138,2.0,4.0,89,0.00,,,0.41,0.000000,,2013-09-15 13:11:00,
2013-09-15 07:21:00,46.0,43.0,-100.00,SE,138,2.0,4.0,89,0.00,,,0.41,0.000000,,2013-09-15 13:21:00,
2013-09-15 07:22:00,45.0,43.0,-100.00,East,91,1.0,4.0,92,0.00,,,0.41,5.000000,,2013-09-15 13:22:00,
2013-09-15 07:53:00,45.0,43.0,-100.00,East,91,1.0,4.0,92,0.00,,,0.41,5.000000,,2013-09-15 13:53:00,
2013-09-15 08:02:00,45.0,43.0,-100.00,East,91,1.0,4.0,92,0.00,,,0.41,5.000000,,2013-09-15 14:02:00,
2013-09-15 08:12:00,45.0,43.0,-100.00,East,91,1.0,4.0,92,0.00,,,0.41,5.000000,,2013-09-15 14:12:00,
2013-09-15 12:22:00,62.0,42.0,-100.00,NNE,29,2.0,6.0,48,0.00,,,0.42,665.000000,,2013-09-15 18:22:00,
2013-09-15 13:22:00,61.0,42.0,-100.00,WSW,256,6.0,13.0,49,0.00,,,0.41,807.000000,,2013-09-15 19:22:00,
2013-09-15 13:52:00,61.0,42.0,-100.00,WSW,256,6.0,13.0,49,0.00,,,0.41,807.000000,,2013-09-15 19:52:00,
2013-09-15 14:02:00,61.0,42.0,-100.00,WSW,256,6.0,13.0,49,0.00,,,0.41,807.000000,,2013-09-15 20:02:00,
2013-09-15 14:11:00,61.0,42.0,-100.00,WSW,256,6.0,13.0,49,0.00,,,0.41,807.000000,,2013-09-15 20:11:00,
2013-09-15 14:53:00,52.0,44.0,-100.00,North,10,6.0,14.0,75,0.00,,,0.02,263.000000,,2013-09-15 20:53:00,
2013-09-15 15:02:00,52.0,44.0,-100.00,North,10,6.0,14.0,75,0.00,,,0.02,263.000000,,2013-09-15 21:02:00,
2013-09-15 15:11:00,52.0,44.0,-100.00,North,10,6.0,14.0,75,0.00,,,0.02,263.000000,,2013-09-15 21:11:00,
2013-09-15 15:21:00,52.0,44.0,-100.00,North,10,6.0,14.0,75,0.00,,,0.02,263.000000,,2013-09-15 21:21:00,
2013-09-15 15:22:00,52.0,47.0,-100.00,ENE,77,2.0,7.0,84,0.02,,,0.04,138.000000,,2013-09-15 21:22:00,
2013-09-15 15:54:00,52.0,47.0,-100.00,ENE,77,2.0,7.0,84,0.02,,,0.04,138.000000,,2013-09-15 21:54:00,
2013-09-15 16:04:00,52.0,47.0,-100.00,ENE,77,2.0,7.0,84,0.02,,,0.04,138.000000,,2013-09-15 22:04:00,
2013-09-15 16:14:00,52.0,47.0,-100.00,ENE,77,2.0,7.0,84,0.02,,,0.04,138.000000,,2013-09-15 22:14:00,
2013-09-15 16:22:00,56.0,46.0,-100.00,East,88,2.0,3.0,69,0.00,,,0.04,407.000000,,2013-09-15 22:22:00,
2013-09-15 16:53:00,56.0,46.0,-100.00,East,88,2.0,3.0,69,0.00,,,0.04,407.000000,,2013-09-15 22:53:00,
2013-09-15 17:02:00,56.0,46.0,-100.00,East,88,2.0,3.0,69,0.00,,,0.04,407.000000,,2013-09-15 23:02:00,
2013-09-15 17:12:00,56.0,46.0,-100.00,East,88,2.0,3.0,69,0.00,,,0.04,407.000000,,2013-09-15 23:12:00,
2013-09-15 17:22:00,53.0,45.0,-100.00,WSW,256,2.0,3.0,74,0.00,,,0.04,152.000000,,2013-09-15 23:22:00,
2013-09-15 17:53:00,53.0,45.0,-100.00,WSW,256,2.0,3.0,74,0.00,,,0.04,152.000000,,2013-09-15 23:53:00,
2013-09-15 18:01:00,53.0,45.0,-100.00,WSW,256,2.0,3.0,74,0.00,,,0.04,152.000000,,2013-09-16 00:01:00,
2013-09-15 18:11:00,53.0,45.0,-100.00,WSW,256,2.0,3.0,74,0.00,,,0.04,152.000000,,2013-09-16 00:11:00,
2013-09-15 18:52:00,47.0,46.0,-100.00,South,182,3.0,7.0,96,0.17,,,0.20,9.000000,,2013-09-16 00:52:00,
2013-09-15 19:02:00,47.0,46.0,-100.00,South,182,3.0,7.0,96,0.17,,,0.20,9.000000,,2013-09-16 01:02:00,
2013-09-15 19:12:00,47.0,46.0,-100.00,South,182,3.0,7.0,96,0.17,,,0.20,9.000000,,2013-09-16 01:12:00,
2013-09-15 19:21:00,47.0,46.0,-100.00,South,182,3.0,7.0,96,0.17,,,0.20,9.000000,,2013-09-16 01:21:00,
2013-09-15 19:22:00,47.0,46.0,-100.00,East,79,3.0,4.0,98,0.02,,,0.22,12.000000,,2013-09-16 01:22:00,
2013-09-15 19:52:00,47.0,46.0,-100.00,East,79,3.0,4.0,98,0.02,,,0.22,12.000000,,2013-09-16 01:52:00,
2013-09-15 20:02:00,47.0,46.0,-100.00,East,79,3.0,4.0,98,0.02,,,0.22,12.000000,,2013-09-16 02:02:00,
2013-09-15 20:12:00,47.0,46.0,-100.00,East,79,3.0,4.0,98,0.02,,,0.22,12.000000,,2013-09-16 02:12:00,
2013-09-15 20:22:00,46.0,44.0,-100.00,SE,138,4.0,6.0,92,0.00,,,0.22,0.000000,,2013-09-16 02:22:00,
2013-09-15 20:52:00,46.0,44.0,-100.00,SE,138,4.0,6.0,92,0.00,,,0.22,0.000000,,2013-09-16 02:52:00,
2013-09-15 21:02:00,46.0,44.0,-100.00,SE,138,4.0,6.0,92,0.00,,,0.22,0.000000,,2013-09-16 03:02:00,
2013-09-15 21:11:00,46.0,44.0,-100.00,SE,138,4.0,6.0,92,0.00,,,0.22,0.000000,,2013-09-16 03:11:00,
2013-09-15 21:22:00,45.0,44.0,-100.00,ESE,114,2.0,4.0,96,0.00,,,0.22,0.000000,,2013-09-16 03:22:00,
2013-09-15 21:55:00,45.0,44.0,-100.00,ESE,114,2.0,4.0,96,0.00,,,0.22,0.000000,,2013-09-16 03:55:00,
2013-09-15 22:05:00,45.0,44.0,-100.00,ESE,114,2.0,4.0,96,0.00,,,0.22,0.000000,,2013-09-16 04:05:00,
2013-09-15 22:13:00,45.0,44.0,-100.00,ESE,114,2.0,4.0,96,0.00,,,0.22,0.000000,,2013-09-16 04:13:00,
2013-09-15 22:22:00,45.0,41.0,-100.00,SE,125,3.0,5.0,87,0.00,,,0.22,0.000000,,2013-09-16 04:22:00,
2013-09-15 22:54:00,45.0,41.0,-100.00,SE,125,3.0,5.0,87,0.00,,,0.22,0.000000,,2013-09-16 04:54:00,
2013-09-15 23:04:00,45.0,41.0,-100.00,SE,125,3.0,5.0,87,0.00,,,0.22,0.000000,,2013-09-16 05:04:00,
2013-09-15 23:13:00,45.0,41.0,-100.00,SE,125,3.0,5.0,87,0.00,,,0.22,0.000000,,2013-09-16 05:13:00,
2013-09-15 23:22:00,44.0,41.0,-100.00,SE,142,3.0,5.0,88,0.00,,,0.22,0.000000,,2013-09-16 05:22:00,
2013-09-15 23:53:00,44.0,41.0,-100.00,SE,142,3.0,5.0,88,0.00,,,0.22,0.000000,,2013-09-16 05:53:00,